Regional Weather Roundup
Issued by NWS

Home | Current Version | Previous Version | Text Only | Print | Product List | Glossary Off
Versions: 1 2 3 4 5 6 7 8 9 10 11 12 13 14 15 16 17 18 19 20 21 22 23 24 25 26 27 28 29 30 31 32 33 34 35 36 37 38 39 40 41 42 43 44 45 46 47 48 49 50

000
ASUS44 KMEG 201000
RWRTN
TENNESSEE HOURLY STATE WEATHER ROUNDUP
NATIONAL WEATHER SERVICE MEMPHIS TN
500 AM CDT SUN APR 20 2014

TNZ002-004-019-021-049-052-054-088>092-201100-
WEST TENNESSEE

CITY           SKY/WX    TMP DP  RH WIND       PRES   REMARKS
MEMPHIS INTL   PTCLDY    52  46  80 CALM      30.16R
NWS MEMPHIS      N/A     49 N/A N/A MISG        N/A
JACKSON        CLEAR     45  42  89 CALM      30.18R
DYERSBURG      CLEAR     52  39  62 E5        30.19S
UNION CITY     CLEAR     46  45  93 CALM      30.17F
LEXINGTON      CLEAR     43  41  93 CALM      30.17S
$$

TNZ008-025-027-028-033-062-065-066-201100-
NORTH MIDDLE TENNESSEE

CITY           SKY/WX    TMP DP  RH WIND       PRES   REMARKS
NASHVILLE      PTCLDY    47  43  86 S3        30.19S
CLARKSVILLE    CLEAR     45  41  86 CALM      30.19R
CROSSVILLE     CLEAR     43  38  82 CALM      30.23R
$$

TNZ061-075-076-078-094-096-097-201100-
SOUTH MIDDLE TENNESSEE

CITY           SKY/WX    TMP DP  RH WIND       PRES   REMARKS
TULLAHOMA      CLEAR     43  37  81 CALM      30.20S
WINCHESTER     CLEAR     43  39  87 CALM      30.20S
COLUMBIA       CLEAR     43  43 100 CALM      30.17R
$$

TNZ017-018-042-046-047-201100-
NORTHEAST TENNESSEE

CITY           SKY/WX    TMP DP  RH WIND       PRES   REMARKS
TRI CITIES     PTCLDY    47  36  65 CALM      30.23R
ELIZABETHTON   SUNNY     41  37  87 CALM      30.23R
$$

TNZ012-013-036-069-073-074-201100-
CENTRAL EAST TENNESSEE

CITY           SKY/WX    TMP DP  RH WIND       PRES   REMARKS
KNOXVILLE      FOG       46  45  96 CALM      30.21R VSB 3/4
OAK RIDGE      MOCLDY    45  43  93 CALM      30.23R
$$

TNZ083-085-099-201100-
SOUTHEAST TENNESSEE

CITY           SKY/WX    TMP DP  RH WIND       PRES   REMARKS
CHATTANOOGA    CLEAR     45  43  93 CALM      30.21R
$$

SKY/WX REPORTED AS FAIR MEANS FEW OR NO CLOUDS BELOW
12 THOUSAND FEET.




USA.gov is the U.S. government's official web portal to all federal, state and local government web resources and services.